Regional Weather Roundup
Issued by NWS Cleveland, OH

Home | Current Version | Previous Version | Text Only | Print | Product List | Glossary Off
Versions: 1 2 3 4 5 6 7 8 9 10 11 12 13 14 15 16 17 18 19 20 21 22 23 24 25 26 27 28 29 30 31 32 33 34 35 36 37 38 39 40 41 42 43 44 45 46 47 48 49 50

000
ASUS41 KCLE 231912
RWRCLE
OHIO REGIONAL WEATHER ROUNDUP
NATIONAL WEATHER SERVICE WILMINGTON, OH
300 PM EDT MON OCT 23 2017

NOTE: "FAIR" INDICATES FEW OR NO CLOUDS BELOW 12,000 FEET WITH NO
SIGNIFICANT WEATHER AND/OR OBSTRUCTIONS TO VISIBILITY.

OHZ001>008-015>018-024>027-034-035-043-044-232000-
   NORTHWEST OHIO

CITY           SKY/WX    TMP DP  RH WIND       PRES   REMARKS
DEFIANCE       LGT RAIN  64  60  87 SE7       29.59F
FINDLAY        LGT RAIN  65  60  84 SE13      29.62F
TOLEDO EXPRESS LGT RAIN  64  64 100 VRB6      29.62F
TOLEDO EXEC    CLOUDY    64  62  93 SE9       29.65F
LIMA           PTSUNNY   64  60  87 S10G20    29.63F
$$

OHZ009>014-019>023-028>033-038-089-232000-
   NORTHEAST OHIO

CITY           SKY/WX    TMP DP  RH WIND       PRES   REMARKS
CLE-HOPKINS    CLOUDY    67  60  78 S20G28    29.75F
CLE-LAKEFRONT  PTSUNNY   67  58  72 SE17G31   29.71F
CUY CO. ARPT   CLOUDY    68  59  73 SE12      29.75F
LORAIN-ELYRIA  NOT AVBL
ASHTABULA      CLOUDY    66  59  78 SE18G25   29.79F
AKRON-CANTON   RAIN      63  59  87 SE15      29.76F FOG
WOOSTER        LGT RAIN  62  61  96 SE15G21   29.75F FOG
MANSFIELD      CLOUDY    63  62  97 SE17G28   29.69F
YOUNGSTOWN     RAIN      62  61  96 SE12G21   29.83F FOG
$$

OHZ042-051>053-060>062-070>072-077>081-232000-
  SOUTHWEST OHIO

CITY           SKY/WX    TMP DP  RH WIND       PRES   REMARKS
CINC-COVINGTON LGT RAIN  61  61 100 SE10      29.70F
CINC-LUNKEN    LGT RAIN  62  60  93 SE10      29.72F
HAMILTON       RAIN      62  61  96 VRB6      29.71F FOG
DAYTON         LGT RAIN  62  61  96 S15       29.69S
WRIGHT-PAT AFB LGT RAIN  63  61  94 S14G21    29.69S
DAYTON GENERAL LGT RAIN  62  58  86 S14       29.71R
WILMINGTON     LGT RAIN  61  60  97 S14       29.72F
$$

OHZ036-037-039>041-045>050-054>059-063>069-073>076-082>088-232000-
  CENTRAL AND SOUTHEAST OHIO

CITY           SKY/WX    TMP DP  RH WIND       PRES   REMARKS
COLUMBUS       CLOUDY    63  60  90 SW10      29.69F
OSU AIRPORT    LGT RAIN  62  60  93 S5        29.69S
BOLTON FIELD   CLOUDY    63  61  94 SW9       29.71S
RICKENBACK AFB CLOUDY    61  60  96 S15       29.72R
NEWARK         LGT RAIN  65  61  87 SE13G20   29.68F FOG
MARION         LGT RAIN  64  61  90 SE16G25   29.65F
LANCASTER      LGT RAIN  61  32  33 SW10G17   29.74R
ZANESVILLE     CLOUDY    65  61  87 SE14G23   29.72F
NEW PHILLY     RAIN      64  61  90 SE16      29.76F
$$



USA.gov is the U.S. government's official web portal to all federal, state and local government web resources and services.